| time (UTC) | temp C | wind direction | speed KPH | gust KPH | rain 1hr cm | rain 24hr cm | rain mn cm | humidity % | barometer mb |
| 20260509182524 | 35 | 254 | 3.2 | 14.5 | 0.00 | 0.00 | 0.00 | 13 | 1008.9 |
| 20260509182026 | 35 | 292 | 4.8 | 14.5 | 0.00 | 0.00 | 0.00 | 13 | 1008.9 |
| 20260509181539 | 35 | 325 | 3.2 | 8.0 | 0.00 | 0.00 | 0.00 | 14 | 1009.0 |
| 20260509181024 | 35 | 42 | 1.6 | 11.3 | 0.00 | 0.00 | 0.00 | 14 | 1009.2 |
| 20260509180524 | 34 | 252 | 1.6 | 11.3 | 0.00 | 0.00 | 0.00 | 15 | 1009.2 |
| 20260509180039 | 33 | 340 | 3.2 | 9.7 | 0.00 | 0.00 | 0.00 | 14 | 1009.2 |
| 20260509175524 | 34 | 0 | 3.2 | 12.9 | 0.00 | 0.00 | 0.00 | 15 | 1009.2 |
| 20260509175024 | 35 | 257 | 1.6 | 14.5 | 0.00 | 0.00 | 0.00 | 14 | 1009.3 |
| 20260509174550 | 35 | 256 | 3.2 | 14.5 | 0.00 | 0.00 | 0.00 | 14 | 1009.4 |
| 20260509174028 | 35 | 213 | 1.6 | 6.4 | 0.00 | 0.00 | 0.00 | 15 | 1009.4 |
| 20260509173523 | 34 | 114 | 1.6 | 8.0 | 0.00 | 0.00 | 0.00 | 15 | 1009.5 |
| 20260509173039 | 34 | 140 | 1.6 | 8.0 | 0.00 | 0.00 | 0.00 | 15 | 1009.5 |
| 20260509172525 | 34 | 151 | 1.6 | 11.3 | 0.00 | 0.00 | 0.00 | 15 | 1009.6 |
| 20260509172024 | 33 | 0 | 1.6 | 11.3 | 0.00 | 0.00 | 0.00 | 16 | 1009.6 |
| 20260509171539 | 33 | 84 | 3.2 | 11.3 | 0.00 | 0.00 | 0.00 | 15 | 1009.6 |
| 20260509171023 | 34 | 115 | 1.6 | 6.4 | 0.00 | 0.00 | 0.00 | 15 | 1009.6 |
| 20260509170524 | 33 | 103 | 0.0 | 4.8 | 0.00 | 0.00 | 0.00 | 15 | 1009.6 |
| 20260509170039 | 33 | 153 | 0.0 | 6.4 | 0.00 | 0.00 | 0.00 | 16 | 1009.7 |
| 20260509165523 | 33 | 5 | 0.0 | 9.7 | 0.00 | 0.00 | 0.00 | 17 | 1009.6 |
| 20260509165023 | 32 | 169 | 1.6 | 9.7 | 0.00 | 0.00 | 0.00 | 17 | 1009.6 |
| 20260509164535 | 32 | 147 | 1.6 | 9.7 | 0.00 | 0.00 | 0.00 | 17 | 1009.5 |
| 20260509164023 | 32 | 0 | 0.0 | 6.4 | 0.00 | 0.00 | 0.00 | 17 | 1009.6 |
| 20260509163524 | 32 | 208 | 1.6 | 6.4 | 0.00 | 0.00 | 0.00 | 17 | 1009.6 |
| 20260509163049 | 32 | 206 | 0.0 | 6.4 | 0.00 | 0.00 | 0.00 | 17 | 1009.6 |
| 20260509162524 | 32 | 96 | 0.0 | 6.4 | 0.00 | 0.00 | 0.00 | 18 | 1009.6 |
| 20260509162024 | 32 | 141 | 0.0 | 4.8 | 0.00 | 0.00 | 0.00 | 19 | 1009.6 |
| 20260509161542 | 31 | 0 | 1.6 | 4.8 | 0.00 | 0.00 | 0.00 | 18 | 1009.5 |
| 20260509161028 | 31 | 58 | 0.0 | 4.8 | 0.00 | 0.00 | 0.00 | 19 | 1009.6 |
| 20260509160524 | 31 | 202 | 0.0 | 4.8 | 0.00 | 0.00 | 0.00 | 19 | 1009.6 |
| 20260509160040 | 30 | 0 | 0.0 | 6.4 | 0.00 | 0.00 | 0.00 | 20 | 1009.6 |
| 20260509155524 | 30 | 0 | 1.6 | 6.4 | 0.00 | 0.00 | 0.00 | 20 | 1009.6 |
| 20260509155027 | 30 | 0 | 0.0 | 6.4 | 0.00 | 0.00 | 0.00 | 22 | 1009.6 |
| 20260509154540 | 29 | 78 | 1.6 | 6.4 | 0.00 | 0.00 | 0.00 | 21 | 1009.6 |
| 20260509154024 | 29 | 103 | 1.6 | 6.4 | 0.00 | 0.00 | 0.00 | 22 | 1009.6 |
| 20260509153524 | 28 | 76 | 1.6 | 6.4 | 0.00 | 0.00 | 0.00 | 23 | 1009.7 |
| 20260509153047 | 28 | 96 | 1.6 | 8.0 | 0.00 | 0.00 | 0.00 | 24 | 1009.7 |
| 20260509152524 | 28 | 0 | 1.6 | 8.0 | 0.00 | 0.00 | 0.00 | 25 | 1009.6 |
| 20260509152027 | 27 | 165 | 1.6 | 9.7 | 0.00 | 0.00 | 0.00 | 25 | 1009.7 |
| 20260509151536 | 27 | 137 | 1.6 | 9.7 | 0.00 | 0.00 | 0.00 | 25 | 1009.6 |
| 20260509151025 | 27 | 142 | 1.6 | 6.4 | 0.00 | 0.00 | 0.00 | 26 | 1009.6 |
| 20260509150528 | 26 | 159 | 1.6 | 9.7 | 0.00 | 0.00 | 0.00 | 27 | 1009.7 |
| 20260509150041 | 26 | 153 | 3.2 | 11.3 | 0.00 | 0.00 | 0.00 | 27 | 1009.6 |
| 20260509145525 | 26 | 153 | 3.2 | 11.3 | 0.00 | 0.00 | 0.00 | 27 | 1009.6 |
| 20260509145024 | 25 | 146 | 3.2 | 11.3 | 0.00 | 0.00 | 0.00 | 27 | 1009.5 |
| 20260509144539 | 25 | 128 | 3.2 | 11.3 | 0.00 | 0.00 | 0.00 | 27 | 1009.7 |
| 20260509144024 | 25 | 146 | 4.8 | 11.3 | 0.00 | 0.00 | 0.00 | 28 | 1009.6 |
| 20260509143525 | 25 | 184 | 3.2 | 11.3 | 0.00 | 0.00 | 0.00 | 29 | 1009.6 |
| 20260509143039 | 24 | 155 | 3.2 | 8.0 | 0.00 | 0.00 | 0.00 | 29 | 1009.4 |
| 20260509142523 | 24 | 171 | 1.6 | 8.0 | 0.00 | 0.00 | 0.00 | 29 | 1009.4 |
| 20260509142024 | 23 | 109 | 3.2 | 9.7 | 0.00 | 0.00 | 0.00 | 29 | 1009.3 |
| 20260509141539 | 23 | 102 | 1.6 | 9.7 | 0.00 | 0.00 | 0.00 | 29 | 1009.4 |
| 20260509141025 | 23 | 165 | 3.2 | 9.7 | 0.00 | 0.00 | 0.00 | 29 | 1009.4 |
| 20260509140524 | 23 | 155 | 1.6 | 6.4 | 0.00 | 0.00 | 0.00 | 30 | 1009.3 |
| 20260509140049 | 22 | 130 | 1.6 | 9.7 | 0.00 | 0.00 | 0.00 | 31 | 1009.3 |
| 20260509135527 | 22 | 109 | 3.2 | 9.7 | 0.00 | 0.00 | 0.00 | 31 | 1009.1 |
| 20260509135023 | 22 | 100 | 3.2 | 9.7 | 0.00 | 0.00 | 0.00 | 31 | 1009.1 |
| 20260509134549 | 21 | 98 | 3.2 | 9.7 | 0.00 | 0.00 | 0.00 | 32 | 1009.1 |
| 20260509134024 | 21 | 126 | 1.6 | 9.7 | 0.00 | 0.00 | 0.00 | 32 | 1009.1 |
| 20260509133524 | 21 | 117 | 3.2 | 9.7 | 0.00 | 0.00 | 0.00 | 32 | 1009.1 |
| 20260509133053 | 21 | 103 | 1.6 | 9.7 | 0.00 | 0.00 | 0.00 | 32 | 1009.0 |
| 20260509132525 | 20 | 129 | 3.2 | 11.3 | 0.00 | 0.00 | 0.00 | 33 | 1009.0 |
| 20260509132023 | 20 | 101 | 1.6 | 11.3 | 0.00 | 0.00 | 0.00 | 33 | 1008.8 |
| 20260509131540 | 20 | 96 | 4.8 | 11.3 | 0.00 | 0.00 | 0.00 | 33 | 1008.8 |
| 20260509131023 | 20 | 100 | 3.2 | 9.7 | 0.00 | 0.00 | 0.00 | 33 | 1008.8 |
| 20260509130523 | 20 | 99 | 3.2 | 9.7 | 0.00 | 0.00 | 0.00 | 33 | 1008.7 |
| 20260509130039 | 20 | 102 | 3.2 | 9.7 | 0.00 | 0.00 | 0.00 | 33 | 1008.5 |
| 20260509125525 | 20 | 97 | 3.2 | 6.4 | 0.00 | 0.00 | 0.00 | 33 | 1008.6 |
| 20260509125024 | 20 | 143 | 1.6 | 9.7 | 0.00 | 0.00 | 0.00 | 33 | 1008.5 |
| 20260509124539 | 19 | 109 | 3.2 | 9.7 | 0.00 | 0.00 | 0.00 | 33 | 1008.3 |
| 20260509124025 | 19 | 102 | 1.6 | 6.4 | 0.00 | 0.00 | 0.00 | 33 | 1008.1 |
| 20260509123524 | 20 | 105 | 3.2 | 6.4 | 0.00 | 0.00 | 0.00 | 33 | 1008.2 |
| 20260509123040 | 20 | 108 | 1.6 | 4.8 | 0.00 | 0.00 | 0.00 | 32 | 1008.1 |
| 20260509122524 | 20 | 110 | 1.6 | 4.8 | 0.00 | 0.00 | 0.00 | 32 | 1008.1 |
| 20260509122024 | 20 | 102 | 1.6 | 4.8 | 0.00 | 0.00 | 0.00 | 32 | 1008.0 |
| 20260509121541 | 20 | 102 | 1.6 | 4.8 | 0.00 | 0.00 | 0.00 | 31 | 1007.9 |
| 20260509121025 | 20 | 0 | 1.6 | 6.4 | 0.00 | 0.00 | 0.00 | 31 | 1007.9 |
| 20260509120524 | 20 | 103 | 1.6 | 6.4 | 0.00 | 0.00 | 0.00 | 32 | 1007.8 |
| 20260509120040 | 20 | 111 | 3.2 | 6.4 | 0.00 | 0.00 | 0.00 | 32 | 1007.8 |
| 20260509115523 | 20 | 109 | 3.2 | 6.4 | 0.00 | 0.00 | 0.00 | 32 | 1007.7 |
| 20260509115024 | 20 | 109 | 1.6 | 4.8 | 0.00 | 0.00 | 0.00 | 32 | 1007.8 |
| 20260509114547 | 20 | 109 | 1.6 | 4.8 | 0.00 | 0.00 | 0.00 | 32 | 1007.6 |
| 20260509114027 | 20 | 109 | 1.6 | 4.8 | 0.00 | 0.00 | 0.00 | 31 | 1007.7 |
| 20260509113523 | 20 | 109 | 1.6 | 6.4 | 0.00 | 0.00 | 0.00 | 32 | 1007.6 |
| 20260509113046 | 20 | 109 | 1.6 | 6.4 | 0.00 | 0.00 | 0.00 | 32 | 1007.7 |
| 20260509112524 | 20 | 109 | 3.2 | 6.4 | 0.00 | 0.00 | 0.00 | 31 | 1007.6 |
| 20260509112024 | 20 | 139 | 0.0 | 4.8 | 0.00 | 0.00 | 0.00 | 32 | 1007.7 |
| 20260509111542 | 20 | 139 | 1.6 | 4.8 | 0.00 | 0.00 | 0.00 | 31 | 1007.6 |
| 20260509111025 | 20 | 139 | 1.6 | 4.8 | 0.00 | 0.00 | 0.00 | 31 | 1007.5 |
| 20260509110523 | 21 | 139 | 0.0 | 3.2 | 0.00 | 0.00 | 0.00 | 31 | 1007.5 |
| 20260509110040 | 21 | 139 | 0.0 | 9.7 | 0.00 | 0.00 | 0.00 | 31 | 1007.4 |
| 20260509105529 | 21 | 139 | 0.0 | 9.7 | 0.00 | 0.00 | 0.00 | 31 | 1007.5 |
| 20260509105024 | 21 | 139 | 4.8 | 9.7 | 0.00 | 0.00 | 0.00 | 30 | 1007.4 |
| 20260509104540 | 21 | 105 | 1.6 | 9.7 | 0.00 | 0.00 | 0.00 | 31 | 1007.4 |
| 20260509104023 | 21 | 143 | 1.6 | 9.7 | 0.00 | 0.00 | 0.00 | 30 | 1007.4 |
| 20260509103524 | 21 | 157 | 4.8 | 9.7 | 0.00 | 0.00 | 0.00 | 30 | 1007.4 |
| 20260509103039 | 21 | 154 | 3.2 | 6.4 | 0.00 | 0.00 | 0.00 | 29 | 1007.4 |
| 20260509102525 | 21 | 146 | 1.6 | 8.0 | 0.00 | 0.00 | 0.00 | 29 | 1007.5 |
| 20260509102025 | 21 | 0 | 3.2 | 8.0 | 0.00 | 0.00 | 0.00 | 29 | 1007.4 |
| 20260509101540 | 21 | 145 | 3.2 | 6.4 | 0.00 | 0.00 | 0.00 | 29 | 1007.5 |
| 20260509101024 | 21 | 145 | 0.0 | 8.0 | 0.00 | 0.00 | 0.00 | 29 | 1007.6 |
| 20260509100524 | 21 | 0 | 3.2 | 8.0 | 0.00 | 0.00 | 0.00 | 29 | 1007.4 |
| 20260509100048 | 21 | 144 | 1.6 | 6.4 | 0.00 | 0.00 | 0.00 | 30 | 1007.5 |
| 20260509095524 | 21 | 0 | 1.6 | 6.4 | 0.00 | 0.00 | 0.00 | 30 | 1007.6 |
| 20260509095024 | 22 | 145 | 3.2 | 4.8 | 0.00 | 0.00 | 0.00 | 31 | 1007.5 |
| 20260509094541 | 22 | 145 | 1.6 | 6.4 | 0.00 | 0.00 | 0.00 | 31 | 1007.6 |
| 20260509094024 | 22 | 145 | 3.2 | 6.4 | 0.00 | 0.00 | 0.00 | 31 | 1007.5 |
| 20260509093525 | 22 | 145 | 3.2 | 6.4 | 0.00 | 0.00 | 0.00 | 31 | 1007.6 |
| 20260509093042 | 22 | 148 | 0.0 | 4.8 | 0.00 | 0.00 | 0.00 | 31 | 1007.4 |
| 20260509092523 | 22 | 148 | 1.6 | 4.8 | 0.00 | 0.00 | 0.00 | 32 | 1007.5 |
| 20260509092024 | 22 | 0 | 0.0 | 3.2 | 0.00 | 0.00 | 0.00 | 31 | 1007.5 |
| 20260509091540 | 22 | 148 | 1.6 | 3.2 | 0.00 | 0.00 | 0.00 | 32 | 1007.5 |
| 20260509091024 | 22 | 148 | 1.6 | 4.8 | 0.00 | 0.00 | 0.00 | 31 | 1007.5 |
| 20260509090525 | 22 | 0 | 1.6 | 4.8 | 0.00 | 0.00 | 0.00 | 30 | 1007.4 |
| 20260509090039 | 22 | 148 | 1.6 | 8.0 | 0.00 | 0.00 | 0.00 | 30 | 1007.5 |
| 20260509085524 | 23 | 0 | 3.2 | 9.7 | 0.00 | 0.00 | 0.00 | 30 | 1007.4 |
| 20260509085024 | 23 | 148 | 4.8 | 9.7 | 0.00 | 0.00 | 0.00 | 30 | 1007.4 |
| 20260509084548 | 23 | 167 | 4.8 | 9.7 | 0.00 | 0.00 | 0.00 | 30 | 1007.4 |
| 20260509084023 | 23 | 133 | 3.2 | 4.8 | 0.00 | 0.00 | 0.00 | 29 | 1007.4 |
| 20260509083527 | 23 | 112 | 1.6 | 4.8 | 0.00 | 0.00 | 0.00 | 28 | 1007.4 |
| 20260509083039 | 23 | 112 | 1.6 | 4.8 | 0.00 | 0.00 | 0.00 | 28 | 1007.3 |
| 20260509082524 | 23 | 112 | 0.0 | 3.2 | 0.00 | 0.00 | 0.00 | 28 | 1007.4 |
| 20260509082025 | 23 | 112 | 0.0 | 3.2 | 0.00 | 0.00 | 0.00 | 28 | 1007.4 |
| 20260509081540 | 23 | 0 | 0.0 | 3.2 | 0.00 | 0.00 | 0.00 | 28 | 1007.4 |
| 20260509081023 | 23 | 0 | 0.0 | 4.8 | 0.00 | 0.00 | 0.00 | 28 | 1007.4 |
| 20260509080524 | 24 | 0 | 1.6 | 4.8 | 0.00 | 0.00 | 0.00 | 28 | 1007.4 |
| 20260509080055 | 24 | 112 | 1.6 | 4.8 | 0.00 | 0.00 | 0.00 | 27 | 1007.3 |
| 20260509075524 | 24 | 112 | 0.0 | 4.8 | 0.00 | 0.00 | 0.00 | 27 | 1007.3 |
| 20260509075025 | 24 | 112 | 1.6 | 4.8 | 0.00 | 0.00 | 0.00 | 27 | 1007.4 |
| 20260509074539 | 24 | 0 | 1.6 | 4.8 | 0.00 | 0.00 | 0.00 | 27 | 1007.3 |
| 20260509074024 | 25 | 253 | 1.6 | 4.8 | 0.00 | 0.00 | 0.00 | 27 | 1007.2 |
| 20260509073524 | 25 | 254 | 1.6 | 4.8 | 0.00 | 0.00 | 0.00 | 28 | 1007.2 |
| 20260509073133 | 25 | 0 | 0.0 | 1.6 | 0.00 | 0.00 | 0.00 | 27 | 1007.2 |
| 20260509072524 | 25 | 0 | 0.0 | 1.6 | 0.00 | 0.00 | 0.00 | 26 | 1007.2 |
| 20260509072023 | 26 | 0 | 0.0 | 1.6 | 0.00 | 0.00 | 0.00 | 25 | 1007.3 |
| 20260509071546 | 26 | 0 | 0.0 | 0.0 | 0.00 | 0.00 | 0.00 | 23 | 1007.2 |
| 20260509071024 | 26 | 0 | 0.0 | 0.0 | 0.00 | 0.00 | 0.00 | 23 | 1007.1 |
| 20260509070524 | 26 | 0 | 0.0 | 1.6 | 0.00 | 0.00 | 0.00 | 23 | 1007.2 |
| 20260509070041 | 26 | 0 | 0.0 | 3.2 | 0.00 | 0.00 | 0.00 | 23 | 1007.2 |
| 20260509065527 | 26 | 0 | 0.0 | 3.2 | 0.00 | 0.00 | 0.00 | 22 | 1007.1 |
| 20260509065025 | 26 | 248 | 0.0 | 3.2 | 0.00 | 0.00 | 0.00 | 23 | 1007.2 |
| 20260509064544 | 26 | 248 | 0.0 | 3.2 | 0.00 | 0.00 | 0.00 | 22 | 1007.2 |
| 20260509064025 | 26 | 0 | 1.6 | 3.2 | 0.00 | 0.00 | 0.00 | 23 | 1007.2 |
| 20260509063528 | 27 | 0 | 0.0 | 0.0 | 0.00 | 0.00 | 0.00 | 23 | 1007.1 |
| 20260509063039 | 27 | 0 | 0.0 | 0.0 | 0.00 | 0.00 | 0.00 | 22 | 1007.1 |
| 20260509062524 | 27 | 0 | 0.0 | 1.6 | 0.00 | 0.00 | 0.00 | 22 | 1007.1 |
| 20260509062026 | 27 | 0 | 0.0 | 3.2 | 0.00 | 0.00 | 0.00 | 22 | 1007.1 |
| 20260509061551 | 27 | 0 | 0.0 | 3.2 | 0.00 | 0.00 | 0.00 | 22 | 1007.0 |
| 20260509061024 | 27 | 0 | 0.0 | 3.2 | 0.00 | 0.00 | 0.00 | 21 | 1007.0 |
| 20260509060524 | 27 | 252 | 0.0 | 6.4 | 0.00 | 0.00 | 0.00 | 21 | 1007.0 |
| 20260509060041 | 27 | 0 | 1.6 | 6.4 | 0.00 | 0.00 | 0.00 | 21 | 1007.0 |
| 20260509055524 | 27 | 214 | 1.6 | 8.0 | 0.00 | 0.00 | 0.00 | 21 | 1007.0 |
| 20260509055027 | 27 | 219 | 1.6 | 8.0 | 0.00 | 0.00 | 0.00 | 21 | 1006.9 |
| 20260509054543 | 28 | 216 | 1.6 | 8.0 | 0.00 | 0.00 | 0.00 | 21 | 1007.0 |
| 20260509054026 | 28 | 253 | 1.6 | 6.4 | 0.00 | 0.00 | 0.00 | 21 | 1007.0 |
| 20260509053526 | 28 | 241 | 3.2 | 6.4 | 0.00 | 0.00 | 0.00 | 22 | 1006.9 |
| 20260509053040 | 28 | 211 | 3.2 | 6.4 | 0.00 | 0.00 | 0.00 | 22 | 1007.0 |
| 20260509052524 | 28 | 215 | 1.6 | 6.4 | 0.00 | 0.00 | 0.00 | 22 | 1007.0 |
| 20260509052024 | 28 | 211 | 1.6 | 8.0 | 0.00 | 0.00 | 0.00 | 21 | 1006.9 |
| 20260509051540 | 28 | 215 | 3.2 | 8.0 | 0.00 | 0.00 | 0.00 | 21 | 1007.0 |
| 20260509051024 | 28 | 232 | 1.6 | 6.4 | 0.00 | 0.00 | 0.00 | 21 | 1006.9 |
| 20260509050524 | 28 | 217 | 1.6 | 6.4 | 0.00 | 0.00 | 0.00 | 21 | 1007.0 |
| 20260509050046 | 28 | 217 | 1.6 | 8.0 | 0.00 | 0.00 | 0.00 | 21 | 1006.9 |
| 20260509045526 | 28 | 217 | 3.2 | 8.0 | 0.00 | 0.00 | 0.00 | 21 | 1006.9 |
| 20260509045026 | 29 | 236 | 3.2 | 8.0 | 0.00 | 0.00 | 0.00 | 20 | 1006.9 |
| 20260509044542 | 29 | 229 | 1.6 | 6.4 | 0.00 | 0.00 | 0.00 | 20 | 1006.9 |
| 20260509044026 | 29 | 223 | 1.6 | 6.4 | 0.00 | 0.00 | 0.00 | 20 | 1006.9 |
| 20260509043526 | 30 | 257 | 3.2 | 8.0 | 0.00 | 0.00 | 0.00 | 19 | 1006.8 |
| 20260509043046 | 30 | 216 | 1.6 | 9.7 | 0.00 | 0.00 | 0.00 | 19 | 1006.8 |
| 20260509042524 | 30 | 246 | 1.6 | 9.7 | 0.00 | 0.00 | 0.00 | 19 | 1006.8 |
| 20260509042024 | 30 | 230 | 1.6 | 9.7 | 0.00 | 0.00 | 0.00 | 18 | 1006.8 |
| 20260509041539 | 30 | 237 | 3.2 | 9.7 | 0.00 | 0.00 | 0.00 | 18 | 1006.6 |
| 20260509041023 | 30 | 227 | 3.2 | 9.7 | 0.00 | 0.00 | 0.00 | 18 | 1006.6 |
| 20260509040524 | 30 | 214 | 3.2 | 11.3 | 0.00 | 0.00 | 0.00 | 17 | 1006.5 |
| 20260509040040 | 31 | 254 | 3.2 | 11.3 | 0.00 | 0.00 | 0.00 | 17 | 1006.4 |
| 20260509035524 | 31 | 238 | 1.6 | 8.0 | 0.00 | 0.00 | 0.00 | 17 | 1006.4 |
| 20260509035023 | 31 | 274 | 1.6 | 8.0 | 0.00 | 0.00 | 0.00 | 17 | 1006.4 |
| 20260509034545 | 31 | 215 | 3.2 | 8.0 | 0.00 | 0.00 | 0.00 | 17 | 1006.2 |
| 20260509034024 | 31 | 222 | 3.2 | 8.0 | 0.00 | 0.00 | 0.00 | 18 | 1006.1 |
| 20260509033524 | 31 | 211 | 3.2 | 6.4 | 0.00 | 0.00 | 0.00 | 18 | 1006.1 |
| 20260509033041 | 31 | 192 | 1.6 | 4.8 | 0.00 | 0.00 | 0.00 | 18 | 1006.0 |
| 20260509032525 | 31 | 191 | 1.6 | 6.4 | 0.00 | 0.00 | 0.00 | 18 | 1005.8 |
| 20260509032024 | 31 | 200 | 1.6 | 6.4 | 0.00 | 0.00 | 0.00 | 17 | 1006.0 |
| 20260509031541 | 32 | 203 | 1.6 | 4.8 | 0.00 | 0.00 | 0.00 | 17 | 1006.0 |
| 20260509031024 | 32 | 0 | 1.6 | 4.8 | 0.00 | 0.00 | 0.00 | 16 | 1006.0 |
| 20260509030528 | 32 | 227 | 1.6 | 4.8 | 0.00 | 0.00 | 0.00 | 16 | 1006.0 |
| 20260509030041 | 32 | 0 | 0.0 | 4.8 | 0.00 | 0.00 | 0.00 | 16 | 1005.9 |
| 20260509025523 | 32 | 0 | 1.6 | 4.8 | 0.00 | 0.00 | 0.00 | 16 | 1005.9 |
| 20260509025025 | 33 | 232 | 1.6 | 4.8 | 0.00 | 0.00 | 0.00 | 15 | 1005.9 |
| 20260509024545 | 33 | 224 | 1.6 | 4.8 | 0.00 | 0.00 | 0.00 | 15 | 1005.8 |
| 20260509024027 | 33 | 244 | 1.6 | 4.8 | 0.00 | 0.00 | 0.00 | 15 | 1005.8 |
| 20260509023525 | 33 | 251 | 1.6 | 6.4 | 0.00 | 0.00 | 0.00 | 14 | 1005.7 |
| 20260509023046 | 33 | 253 | 1.6 | 6.4 | 0.00 | 0.00 | 0.00 | 14 | 1005.7 |
| 20260509022524 | 34 | 247 | 1.6 | 9.7 | 0.00 | 0.00 | 0.00 | 14 | 1005.6 |
| 20260509022024 | 34 | 265 | 1.6 | 9.7 | 0.00 | 0.00 | 0.00 | 14 | 1005.6 |
| 20260509021542 | 35 | 0 | 1.6 | 11.3 | 0.00 | 0.00 | 0.00 | 13 | 1005.5 |
| 20260509021024 | 35 | 284 | 1.6 | 11.3 | 0.00 | 0.00 | 0.00 | 13 | 1005.5 |
| 20260509020526 | 35 | 248 | 1.6 | 11.3 | 0.00 | 0.00 | 0.00 | 13 | 1005.6 |
| 20260509020039 | 35 | 243 | 3.2 | 11.3 | 0.00 | 0.00 | 0.00 | 13 | 1005.6 |
| 20260509015526 | 35 | 258 | 3.2 | 14.5 | 0.00 | 0.00 | 0.00 | 13 | 1005.5 |
| 20260509015025 | 35 | 280 | 4.8 | 14.5 | 0.00 | 0.00 | 0.00 | 12 | 1005.5 |
| 20260509014539 | 36 | 305 | 3.2 | 14.5 | 0.00 | 0.00 | 0.00 | 13 | 1005.5 |
| 20260509014023 | 36 | 277 | 3.2 | 14.5 | 0.00 | 0.00 | 0.00 | 12 | 1005.4 |
| 20260509013528 | 36 | 284 | 3.2 | 14.5 | 0.00 | 0.00 | 0.00 | 12 | 1005.5 |
| 20260509013046 | 36 | 292 | 3.2 | 14.5 | 0.00 | 0.00 | 0.00 | 12 | 1005.4 |
| 20260509012524 | 36 | 311 | 4.8 | 17.7 | 0.00 | 0.00 | 0.00 | 12 | 1005.4 |
| 20260509012024 | 36 | 304 | 8.0 | 17.7 | 0.00 | 0.00 | 0.00 | 12 | 1005.4 |
| 20260509011543 | 36 | 296 | 4.8 | 17.7 | 0.00 | 0.00 | 0.00 | 12 | 1005.5 |
| 20260509011027 | 36 | 301 | 6.4 | 17.7 | 0.00 | 0.00 | 0.00 | 12 | 1005.5 |
| 20260509010524 | 36 | 308 | 8.0 | 20.9 | 0.00 | 0.00 | 0.00 | 12 | 1005.5 |
| 20260509010042 | 36 | 307 | 6.4 | 20.9 | 0.00 | 0.00 | 0.00 | 12 | 1005.5 |
| 20260509005524 | 36 | 290 | 8.0 | 20.9 | 0.00 | 0.00 | 0.00 | 12 | 1005.6 |
| 20260509005028 | 36 | 352 | 8.0 | 20.9 | 0.00 | 0.00 | 0.00 | 12 | 1005.5 |
| 20260509004600 | 36 | 325 | 9.7 | 20.9 | 0.00 | 0.00 | 0.00 | 11 | 1005.6 |
| 20260509004030 | 36 | 308 | 6.4 | 19.3 | 0.00 | 0.00 | 0.00 | 11 | 1005.6 |
| 20260509003524 | 36 | 317 | 6.4 | 17.7 | 0.00 | 0.00 | 0.00 | 11 | 1005.5 |
| 20260509003044 | 36 | 334 | 9.7 | 22.5 | 0.00 | 0.00 | 0.00 | 11 | 1005.6 |
| 20260509002524 | 36 | 335 | 8.0 | 22.5 | 0.00 | 0.00 | 0.00 | 10 | 1005.6 |
| 20260509002026 | 36 | 329 | 9.7 | 22.5 | 0.00 | 0.00 | 0.00 | 10 | 1005.8 |
| 20260509001538 | 36 | 327 | 11.3 | 24.1 | 0.00 | 0.00 | 0.00 | 10 | 1005.8 |
| 20260509001025 | 36 | 290 | 11.3 | 24.1 | 0.00 | 0.00 | 0.00 | 10 | 1005.8 |
| 20260509000524 | 36 | 344 | 8.0 | 22.5 | 0.00 | 0.00 | 0.00 | 11 | 1005.8 |
| 20260509000045 | 36 | 340 | 9.7 | 19.3 | 0.00 | 0.00 | 0.00 | 11 | 1005.8 |
| 20260508235526 | 36 | 296 | 4.8 | 22.5 | 0.00 | 0.00 | 0.00 | 12 | 1005.9 |
| 20260508235024 | 36 | 335 | 11.3 | 22.5 | 0.00 | 0.00 | 0.00 | 11 | 1005.8 |
| 20260508234541 | 36 | 333 | 6.4 | 20.9 | 0.00 | 0.00 | 0.00 | 11 | 1005.7 |
| 20260508234024 | 36 | 289 | 11.3 | 24.1 | 0.00 | 0.00 | 0.00 | 12 | 1005.7 |
| 20260508233524 | 36 | 288 | 8.0 | 24.1 | 0.00 | 0.00 | 0.00 | 12 | 1005.9 |
| 20260508233039 | 36 | 300 | 4.8 | 20.9 | 0.00 | 0.00 | 0.00 | 12 | 1005.9 |
| 20260508232526 | 36 | 334 | 6.4 | 20.9 | 0.00 | 0.00 | 0.00 | 11 | 1006.1 |
| 20260508232026 | 36 | 360 | 4.8 | 16.1 | 0.00 | 0.00 | 0.00 | 12 | 1006.0 |
| 20260508231540 | 36 | 251 | 4.8 | 16.1 | 0.00 | 0.00 | 0.00 | 12 | 1006.1 |
| 20260508231024 | 36 | 279 | 8.0 | 22.5 | 0.00 | 0.00 | 0.00 | 12 | 1006.2 |
| 20260508230525 | 36 | 311 | 9.7 | 22.5 | 0.00 | 0.00 | 0.00 | 12 | 1006.1 |
| 20260508230050 | 36 | 318 | 11.3 | 22.5 | 0.00 | 0.00 | 0.00 | 12 | 1006.1 |
| 20260508225526 | 36 | 294 | 8.0 | 20.9 | 0.00 | 0.00 | 0.00 | 12 | 1006.2 |
| 20260508225028 | 36 | 307 | 6.4 | 16.1 | 0.00 | 0.00 | 0.00 | 13 | 1006.2 |
| 20260508224545 | 36 | 262 | 4.8 | 20.9 | 0.00 | 0.00 | 0.00 | 13 | 1006.1 |
| 20260508224024 | 36 | 253 | 8.0 | 20.9 | 0.00 | 0.00 | 0.00 | 13 | 1006.2 |
| 20260508223526 | 36 | 276 | 6.4 | 17.7 | 0.00 | 0.00 | 0.00 | 13 | 1006.3 |
| 20260508223135 | 36 | 285 | 4.8 | 20.9 | 0.00 | 0.00 | 0.00 | 14 | 1006.3 |
| 20260508222524 | 36 | 320 | 6.4 | 20.9 | 0.00 | 0.00 | 0.00 | 14 | 1006.4 |
| 20260508222026 | 36 | 306 | 6.4 | 20.9 | 0.00 | 0.00 | 0.00 | 13 | 1006.5 |
| 20260508221541 | 36 | 296 | 6.4 | 19.3 | 0.00 | 0.00 | 0.00 | 14 | 1006.7 |
| 20260508221024 | 36 | 304 | 9.7 | 19.3 | 0.00 | 0.00 | 0.00 | 14 | 1006.7 |
| 20260508220524 | 36 | 239 | 6.4 | 19.3 | 0.00 | 0.00 | 0.00 | 14 | 1006.8 |
| 20260508220041 | 36 | 331 | 8.0 | 19.3 | 0.00 | 0.00 | 0.00 | 14 | 1007.0 |
| 20260508215526 | 36 | 309 | 8.0 | 17.7 | 0.00 | 0.00 | 0.00 | 15 | 1007.1 |
| 20260508215028 | 36 | 300 | 6.4 | 17.7 | 0.00 | 0.00 | 0.00 | 14 | 1007.3 |
| 20260508214549 | 36 | 321 | 6.4 | 17.7 | 0.00 | 0.00 | 0.00 | 14 | 1007.3 |
| 20260508214030 | 35 | 255 | 3.2 | 17.7 | 0.00 | 0.00 | 0.00 | 14 | 1007.6 |
| 20260508213526 | 35 | 321 | 4.8 | 17.7 | 0.00 | 0.00 | 0.00 | 14 | 1007.6 |
| 20260508213045 | 35 | 331 | 8.0 | 17.7 | 0.00 | 0.00 | 0.00 | 14 | 1007.6 |
| 20260508212528 | 35 | 298 | 6.4 | 16.1 | 0.00 | 0.00 | 0.00 | 15 | 1007.7 |
| 20260508212028 | 35 | 316 | 3.2 | 20.9 | 0.00 | 0.00 | 0.00 | 15 | 1007.8 |
| 20260508211543 | 35 | 285 | 6.4 | 20.9 | 0.00 | 0.00 | 0.00 | 14 | 1007.9 |
| 20260508211027 | 35 | 319 | 1.6 | 14.5 | 0.00 | 0.00 | 0.00 | 15 | 1008.0 |
| 20260508210526 | 35 | 308 | 4.8 | 14.5 | 0.00 | 0.00 | 0.00 | 15 | 1008.1 |
| 20260508210045 | 35 | 313 | 4.8 | 17.7 | 0.00 | 0.00 | 0.00 | 15 | 1008.2 |
| 20260508205527 | 34 | 221 | 6.4 | 19.3 | 0.00 | 0.00 | 0.00 | 15 | 1008.2 |
| 20260508205029 | 35 | 333 | 4.8 | 19.3 | 0.00 | 0.00 | 0.00 | 15 | 1008.2 |
| 20260508204538 | 35 | 242 | 6.4 | 19.3 | 0.00 | 0.00 | 0.00 | 15 | 1008.3 |
| 20260508204025 | 35 | 322 | 1.6 | 12.9 | 0.00 | 0.00 | 0.00 | 15 | 1008.5 |
| 20260508203525 | 34 | 323 | 3.2 | 16.1 | 0.00 | 0.00 | 0.00 | 15 | 1008.6 |
| 20260508203037 | 33 | 290 | 4.8 | 16.1 | 0.00 | 0.00 | 0.00 | 16 | 1008.6 |
| 20260508202525 | 33 | 286 | 6.4 | 14.5 | 0.00 | 0.00 | 0.00 | 15 | 1008.7 |
| 20260508202024 | 34 | 259 | 6.4 | 14.5 | 0.00 | 0.00 | 0.00 | 15 | 1008.6 |
| 20260508201539 | 34 | 265 | 3.2 | 14.5 | 0.00 | 0.00 | 0.00 | 15 | 1008.8 |
| 20260508201024 | 33 | 168 | 3.2 | 16.1 | 0.00 | 0.00 | 0.00 | 16 | 1008.8 |
| 20260508200524 | 33 | 349 | 6.4 | 16.1 | 0.00 | 0.00 | 0.00 | 16 | 1009.0 |
| 20260508200047 | 33 | 304 | 1.6 | 14.5 | 0.00 | 0.00 | 0.00 | 16 | 1009.0 |
| 20260508195523 | 33 | 312 | 4.8 | 14.5 | 0.00 | 0.00 | 0.00 | 15 | 1009.1 |
| 20260508195027 | 33 | 213 | 4.8 | 14.5 | 0.00 | 0.00 | 0.00 | 16 | 1009.1 |
| 20260508194545 | 33 | 322 | 4.8 | 14.5 | 0.00 | 0.00 | 0.00 | 16 | 1009.2 |
| 20260508194023 | 33 | 292 | 1.6 | 17.7 | 0.00 | 0.00 | 0.00 | 17 | 1009.2 |
| 20260508193523 | 33 | 318 | 4.8 | 17.7 | 0.00 | 0.00 | 0.00 | 17 | 1009.3 |
| 20260508193044 | 33 | 310 | 6.4 | 17.7 | 0.00 | 0.00 | 0.00 | 17 | 1009.5 |
| 20260508192524 | 33 | 226 | 4.8 | 14.5 | 0.00 | 0.00 | 0.00 | 16 | 1009.5 |
| 20260508192025 | 33 | 265 | 3.2 | 14.5 | 0.00 | 0.00 | 0.00 | 17 | 1009.7 |
| 20260508191539 | 33 | 238 | 6.4 | 14.5 | 0.00 | 0.00 | 0.00 | 17 | 1009.6 |
| 20260508191024 | 33 | 263 | 6.4 | 14.5 | 0.00 | 0.00 | 0.00 | 17 | 1009.7 |
| 20260508190524 | 32 | 225 | 3.2 | 12.9 | 0.00 | 0.00 | 0.00 | 17 | 1009.7 |
| 20260508190054 | 32 | 245 | 3.2 | 14.5 | 0.00 | 0.00 | 0.00 | 17 | 1009.9 |
| 20260508185524 | 32 | 347 | 3.2 | 14.5 | 0.00 | 0.00 | 0.00 | 17 | 1009.9 |
| 20260508185024 | 32 | 325 | 6.4 | 14.5 | 0.00 | 0.00 | 0.00 | 16 | 1010.0 |
| 20260508184558 | 33 | 269 | 4.8 | 11.3 | 0.00 | 0.00 | 0.00 | 16 | 1010.0 |
| 20260508184024 | 32 | 0 | 1.6 | 11.3 | 0.00 | 0.00 | 0.00 | 17 | 1010.2 |
| 20260508183523 | 32 | 213 | 1.6 | 11.3 | 0.00 | 0.00 | 0.00 | 17 | 1010.3 |
| 20260508183039 | 32 | 133 | 1.6 | 12.9 | 0.00 | 0.00 | 0.00 | 17 | 1010.3 |